Location: ???????
(55.8095°N, 37.9252°E)
Time: 13:45:38
(UTC+00:00)

Daily predictions for brighter satellites

Satellite Brightness Start Highest point End
(mag) Time Altitude Azimuth Time Altitude Azimuth Time Altitude Azimuth
USA 267 3.4 13:30:43 10° ESE 13:37:18 88° SSW 13:43:53 10° WNW
USA 229 DEB 4.0 13:33:08 10° WNW 13:40:04 58° NNE 13:47:21 10° ESE
USA 229 4.0 13:33:14 10° WNW 13:40:09 58° NNE 13:47:26 10° E
Cosmos 1269 Rocket 4.4 13:36:19 10° SW 13:41:35 65° WNW 13:46:54 10° NNE
CZ-4B R/B 1.8 13:38:11 10° NNE 13:41:36 48° E 13:44:57 10° S
CZ-4B DEB 4.5 13:36:46 10° SSE 13:42:14 78° WSW 13:47:47 10° NNW
Cosmos 1666 3.2 13:40:03 10° N 13:43:34 37° ENE 13:47:04 10° SE
H-2A R/B 3.6 13:41:47 10° ESE 13:44:52 26° ENE 13:47:58 10° N
NOSS 3-1 (A) 4.1 13:38:46 10° WNW 13:45:21 53° NNE 13:53:05 10° E
NOSS 3-4 (A) 3.6 13:40:05 10° WSW 13:46:14 76° NNW 13:52:56 10° NE
NOSS 3-4 (C) 3.6 13:40:11 10° WSW 13:46:20 76° NW 13:53:02 10° NE
Cosmos 1862 Rocket 4.0 13:42:54 10° SSE 13:47:04 43° E 13:51:17 10° NNE
YAOGAN 6 4.4 13:46:03 10° E 13:47:42 13° NE 13:49:22 10° NNE
STARLINK-46 3.4 13:45:24 10° WSW 13:47:58 43° S 13:50:31 10° ESE
Meteor 1-10 Rocket 4.3 13:43:39 10° S 13:49:11 69° E 13:54:52 10° NNE
Cosmos 1315 Rocket 3.3 13:47:22 10° SSW 13:51:23 63° WNW 13:55:29 10° N
COSMOS 2428 2.8 13:47:13 10° SW 13:52:55 84° NW 13:58:42 10° NE
NOSS 2-2 (C) 4.4 13:50:08 10° W 13:53:58 39° NNW 13:58:49 10° NE
Okean 2 Rocket 4.4 13:51:07 10° NNE 13:54:29 20° ENE 13:57:50 10° ESE
Meteor 1-11 Rocket 4.1 13:53:45 10° NNW 13:59:46 79° WSW 14:05:41 10° S
CZ-4B R/B 3.4 13:55:19 10° SSE 14:00:43 81° WSW 14:06:17 10° NNW
Cosmos 2278 Rocket 4.0 13:56:05 10° NW 14:01:15 37° WSW 14:06:24 10° S
Cosmos 1707 Rocket 3.9 13:57:08 10° SSW 14:01:36 74° WNW 14:06:06 10° N
Meteor 1-27 Rocket 4.0 13:56:14 10° S 14:01:57 58° E 14:07:46 10° NNE
Cosmos 1689 Rocket 2.4 13:59:25 10° NNE 14:02:23 46° E 14:05:17 10° S
Cosmos 2360 Rocket 3.2 13:57:44 10° WSW 14:03:03 38° NW 14:08:22 10° NNE
Sich 1 Rocket 4.3 13:59:10 10° N 14:03:09 32° ENE 14:07:06 10° SE
Envisat 3.6 13:59:10 10° ESE 14:03:40 33° ENE 14:08:12 10° N
CZ-4 R/B 2.8 14:03:07 10° E 14:05:32 16° NE 14:07:58 10° NNE
Cosmos 1975 3.9 14:02:53 10° N 14:06:12 24° ENE 14:09:30 10° ESE
SJ-7 4.4 14:02:22 10° SSE 14:06:30 77° ENE 14:10:36 10° NNW
Cosmos 2322 4.4 14:02:55 10° WSW 14:08:27 49° NW 14:14:00 10° NNE
Cosmos 2369 Rocket 2.4 14:04:28 10° NNW 14:09:56 47° NE 14:15:23 10° ESE
Cosmos 2344 4.2 14:01:56 10° WNW 14:10:22 65° NNE 14:21:48 10° ESE
Cosmos 407 Rocket 4.5 14:06:24 10° SSE 14:10:47 28° E 14:14:50 12° NE
Cosmos 1980 Rocket 3.9 14:07:01 10° NW 14:10:59 19° N 14:14:57 10° NNE
Okean 1-7 4.0 14:08:51 10° SSE 14:12:34 28° E 14:16:21 10° NNE
Cosmos 2251 Rocket 3.5 14:07:44 10° SSW 14:13:02 82° ESE 14:18:20 10° NNE
Aureole 2 Rocket 4.5 14:14:18 10° NNE 14:14:41 11° NNE 14:14:41 11° NNE
CORIOLIS 4.2 14:10:27 10° SE 14:15:46 57° ENE 14:21:07 10° N
ATLAS 5 CENTAUR R/B 3.0 14:15:00 10° SSE 14:15:50 12° SE 14:16:28 11° ESE
Cosmos 1908 Rocket 3.5 14:12:45 10° N 14:17:11 80° ENE 14:21:33 10° SSE
Okean O Rocket 2.3 14:15:05 10° S 14:19:22 58° WSW 14:23:42 10° NNW
Cosmos 1092 Rocket 4.2 14:14:45 10° SSE 14:20:46 51° E 14:26:45 10° NNE
H-2A R/B 3.9 14:20:27 10° N 14:23:49 25° WNW 14:27:12 10° WSW
FALCON 9 DEB 4.3 14:20:48 10° SW 14:24:01 34° SSE 14:26:34 14° E
ATLAS 2AS CENTAUR R/B 3.4 14:16:18 10° W 14:24:15 58° NNW 14:30:56 15° NE
SL-16 R/B 2.8 14:19:24 10° S 14:24:37 38° ESE 14:28:57 14° NE
Cosmos 1943 Rocket 2.2 14:19:32 10° NNW 14:25:11 63° NE 14:30:44 10° SE
SeaSat 1 4.0 14:24:08 14° NE 14:26:10 18° NNE 14:29:25 10° NNW
Lacrosse 4 Rocket 2.6 14:22:59 10° NNW 14:26:29 25° NNE 14:28:32 18° ENE
Cosmos 1743 2.9 14:23:12 10° N 14:26:59 48° ENE 14:30:45 10° SSE
COSMO-SKYMED 1 4.1 14:27:19 16° E 14:27:43 16° E 14:30:24 10° SE
Cosmos 2242 Rocket 3.6 14:23:50 10° S 14:28:23 68° E 14:32:58 10° NNE
Aureole 3 Rocket 3.7 14:26:05 10° NNE 14:30:34 11° ESE 14:30:50 10° ESE
SMAP 3.0 14:24:33 10° SSE 14:29:13 76° ENE 14:33:54 10° NNW
Cosmos 2237 Rocket 2.2 14:24:51 10° SSW 14:30:34 84° ESE 14:35:50 12° NE
Cosmos 921 Rocket 3.3 14:26:36 10° NNW 14:30:53 70° WSW 14:35:13 10° SSE
Cosmos 2219 Rocket 2.9 14:28:51 10° WSW 14:34:20 50° NW 14:39:42 11° NNE
Cosmos 2322 Rocket 3.8 14:30:04 10° WNW 14:34:30 23° NNW 14:38:57 10° NNE
YAOGAN 1 3.5 14:31:54 10° ESE 14:35:29 26° ENE 14:39:06 10° N
Cosmos 1697 Rocket 4.4 14:33:32 10° NW 14:37:14 17° N 14:39:50 13° NE
STARLINK-60 3.9 14:34:47 10° WSW 14:38:00 42° SSE 14:40:01 19° ESE
COBE Rocket 4.0 14:36:42 10° NNE 14:41:15 50° E 14:45:51 10° S
USA 215 4.0 14:38:17 17° ENE 14:42:56 39° SE 14:48:57 10° SSW
ALOS 4.2 14:38:54 10° SSW 14:43:05 32° W 14:47:17 10° NNW
Cosmos 2333 Rocket 3.1 14:38:52 10° WSW 14:44:25 46° NW 14:49:35 12° NNE
Cosmos 1812 3.5 14:40:51 10° SSW 14:44:38 52° WNW 14:48:27 10° N
H-2A R/B 3.9 14:46:12 11° NNE 14:46:12 11° NNE 14:46:47 10° NNE
Cosmos 1763 Rocket 4.0 14:40:12 10° NNW 14:44:55 36° NE 14:49:14 12° ESE
NOSS 0 Rocket 4.1 14:38:58 10° SW 14:45:13 75° NW 14:50:44 14° NE
PSLV R/B 3.9 14:41:13 10° NNE 14:45:20 66° ESE 14:49:25 10° S
FengYun 1-2 T 4.3 14:41:13 10° SE 14:46:32 53° ENE 14:51:55 10° N
Ariane Rocket 4.1 14:46:14 21° ENE 14:47:07 22° NE 14:50:57 10° N
SL-16 R/B 3.9 14:43:13 10° WNW 14:47:26 21° NNW 14:51:14 11° NNE
Cosmos 1536 4.4 14:43:46 10° NNW 14:47:31 38° W 14:51:13 10° SSW
Feng Yun 1-1 Rocket 4.3 14:42:17 10° SSE 14:47:42 79° WSW 14:53:13 10° NNW
Okean-O 2.5 14:43:56 10° SSE 14:48:20 67° ENE 14:52:45 10° NNW
RESURS DK-1 3.7 14:45:17 10° WSW 14:49:03 33° NW 14:52:08 14° NNE
CSL-04 Rocket 4.0 14:45:23 10° SE 14:50:17 40° ENE 14:55:15 10° N
COSMOS 2455 4.0 14:45:05 10° WNW 14:50:20 30° N 14:53:59 17° NE
S3M 4.1 14:44:37 10° N 14:50:41 50° ENE 14:56:38 10° SE
NOAA 12 4.0 14:46:13 10° SSE 14:51:29 78° ENE 14:56:47 10° NNW
Nadezhda 4 Rocket 4.2 14:45:34 10° SSW 14:51:54 77° WNW 14:58:13 10° N
Lacrosse 5 rocket 1.2 14:52:31 10° W 14:56:46 79° N 14:58:37 31° ENE
SL-4 R/B 3.1 14:55:55 10° W 14:59:25 38° SSW 15:02:25 15° SE
Cosmos 1553 Rocket 4.0 14:53:54 10° N 15:00:18 71° ENE 15:06:43 10° SSE
STARLINK-52 4.0 14:57:19 10° SW 15:00:39 41° SSE 15:01:55 29° ESE
Meteor 2-4 Rocket 4.5 14:55:52 10° SSE 15:00:48 30° E 15:02:49 24° NE
Cosmos 405 Rocket 2.7 14:57:51 10° N 15:01:29 51° ENE 15:05:08 10° SSE
Cosmos 614 Rocket 3.9 14:56:39 10° SSW 15:01:40 63° ESE 15:04:56 22° NE
Cosmos 1980 4.1 14:57:39 10° SW 15:03:16 63° NW 15:07:48 16° NNE
Cosmos 2151 Rocket 3.7 15:02:32 10° N 15:06:51 49° ENE 15:11:08 10° SSE
STARLINK-29 3.8 15:05:20 10° WSW 15:08:44 45° SSE 15:09:45 34° ESE
Okean 1 3.2 15:06:00 10° S 15:09:56 63° E 15:12:01 26° NNE
Cosmos 1190 Rocket 4.0 15:04:49 10° SSW 15:09:56 63° ESE 15:12:57 25° NE
Aureole 1 Rocket 2.7 15:07:35 10° SW 15:10:47 67° WNW 15:12:48 25° NNE
Exosat Rocket 4.1 15:06:47 10° SW 15:11:41 56° NW 15:16:00 16° NNE
Cosmos 2026 Rocket 3.8 15:06:30 10° S 15:12:34 79° E 15:18:42 10° NNE
Cosmos 1782 Rocket 4.3 15:08:23 10° NNW 15:12:39 55° W 15:16:53 10° S
Cosmos 676 Rocket 4.3 15:08:18 10° S 15:13:11 44° ESE 15:15:04 31° ENE
CZ-4B R/B 3.9 15:11:03 10° N 15:13:42 20° WNW 15:16:19 10° WSW
CSL-04 Debris 4.2 15:09:17 10° SE 15:14:35 58° ENE 15:19:54 10° NNW
SKYMED 2 4.0 15:15:58 37° E 15:16:19 38° E 15:20:22 10° SSE
Cosmos 841 Rocket 3.9 15:12:34 10° NNW 15:17:25 39° NE 15:18:30 35° ENE
Cosmos 1954 Rocket 4.3 15:12:58 10° S 15:17:53 45° ESE 15:19:34 34° ENE
H-2A R/B 4.1 15:15:28 10° SSW 15:18:57 39° W 15:22:28 10° NNW
NOSS 3-1 (C) 4.1 15:12:14 10° NW 15:19:24 79° SW 15:27:45 10° SE
Meteor 1-19 Rocket 4.2 15:15:15 10° S 15:20:33 54° E 15:24:05 21° NNE
YAOGAN 6 2.4 15:17:00 10° SSE 15:20:36 83° ENE 15:24:16 10° NNW
Cosmos 2263 4.2 15:14:46 10° NW 15:20:37 88° NE 15:26:26 10° SSE
USA 267 4.1 15:14:26 10° SE 15:20:45 49° SW 15:27:05 10° WNW
Cosmos 1174 3.6 15:16:30 10° SW 15:20:57 84° SE 15:21:55 49° NE
STARLINK-46 3.8 15:19:30 10° W 15:21:57 33° SSW 15:22:04 32° S
Cosmos 540 Rocket 3.9 15:18:48 10° NNW 15:23:34 37° NE 15:23:56 36° ENE
CZ-4 R/B 4.3 15:20:31 10° SSE 15:24:41 80° ENE 15:28:52 10° NNW
CZ-4C R/B 3.3 15:21:17 10° S 15:25:13 25° ESE 15:25:13 25° ESE
Cosmos 1544 2.9 15:22:57 10° N 15:26:35 64° ENE 15:26:38 64° E
Cosmos 1703 Rocket 4.1 15:24:35 10° SSW 15:29:01 59° WNW 15:33:16 11° N
USA 229 DEB 4.1 15:24:16 10° NW 15:31:22 70° SW 15:38:49 10° SE
USA 229 4.1 15:24:22 10° NW 15:31:28 70° SW 15:38:54 10° SE
Cosmos 1140 Rocket 3.3 15:27:22 10° SSW 15:32:30 75° ESE 15:34:42 35° NE
Cosmos 1515 4.4 15:29:05 10° S 15:31:39 37° SSE 15:31:39 37° SSE
Okean 2 Rocket 3.3 15:28:36 10° NNW 15:33:05 73° W 15:37:35 10° S
IRIDIUM 104 4.4 15:29:27 10° SSE 15:34:27 49° E 15:36:18 34° NE
Meteor 2-8 Rocket 4.4 15:30:13 10° N 15:36:12 57° ENE 15:42:11 10° SSE
Cosmos 883 Rocket 4.4 15:30:08 10° N 15:36:27 63° ENE 15:42:41 10° SSE
Meteor 2-9 Rocket 4.5 15:30:42 10° NNW 15:36:35 74° W 15:42:20 10° S
NOSS 3-1 (A) 4.0 15:29:47 10° NW 15:36:57 85° SW 15:44:46 12° SE
NOSS 3-4 (A) 4.2 15:31:55 10° W 15:37:59 45° N 15:40:43 31° NE
COSMOS 2428 4.2 15:33:05 10° W 15:38:00 29° NNW 15:41:24 17° NNE
NOSS 3-4 (C) 4.2 15:32:01 10° W 15:38:04 45° N 15:40:49 31° NE
CZ-4 R/B 1.2 15:36:14 10° SSE 15:40:06 81° WSW 15:43:59 10° NNW
Cosmos 1023 Rocket 4.3 15:35:25 10° SSW 15:40:32 86° ESE 15:42:38 37° NNE
Cosmos 1656 Rocket 3.5 15:36:00 10° NNW 15:41:30 82° NE 15:45:00 23° SE
Cosmos 2315 Rocket 4.0 15:35:29 10° N 15:41:45 58° ENE 15:47:55 10° SSE
Envisat 3.8 15:37:35 10° S 15:42:33 53° W 15:47:33 10° NNW
Cosmos 1975 3.8 15:39:03 10° NNW 15:42:54 47° W 15:46:45 10° SSW
Cosmos 468 Rocket 3.9 15:37:44 10° NNW 15:42:58 87° WSW 15:48:12 10° SSE
IRIDIUM 114 4.3 15:38:28 10° SSE 15:43:34 57° E 15:45:27 36° NNE
NOAA 11 4.1 15:38:09 10° SSE 15:43:37 73° ENE 15:49:07 10° NNW
Cosmos 2221 Rocket 3.4 15:41:38 10° S 15:46:05 87° E 15:47:27 45° NNE
Cosmos 1943 3.8 15:42:32 10° S 15:47:00 37° SE 15:47:00 37° SE
Cosmos 2360 Rocket 4.0 15:44:38 10° WNW 15:48:40 19° NNW 15:50:48 16° NNE
Okean 1-7 4.1 15:45:48 10° SW 15:49:59 44° WNW 15:53:33 14° N
Meteor 1-12 Rocket 4.4 15:45:10 10° NNW 15:51:03 79° W 15:56:48 10° S
Meteor 2-13 Rocket 4.3 15:45:43 10° S 15:51:46 76° E 15:57:06 14° NNE
Cosmos 407 Rocket 3.8 15:47:13 10° SW 15:52:26 64° WNW 15:55:03 30° NNE
IRIDIUM 103 4.2 15:47:33 10° S 15:52:43 66° E 15:54:37 38° NNE
Cosmos 2369 Rocket 3.2 15:48:39 10° NW 15:54:02 47° WSW 15:59:26 10° S
Cosmos 1241 Rocket 4.4 15:49:35 10° SSW 15:55:51 66° SE 15:57:18 51° ENE
Cosmos 1980 Rocket 3.8 15:53:01 10° NNW 15:57:00 20° NNE 15:57:00 20° NNE
Lacrosse 5 2.9 15:53:25 10° SSW 15:57:14 32° SSE 15:57:14 32° SSE
Cosmos 1300 Rocket 4.2 15:56:18 10° NNW 16:00:32 53° W 16:04:44 10° S
FALCON 9 DEB 4.3 15:57:22 10° WSW 15:59:54 40° SW 15:59:54 40° SW
MOS 1 4.5 16:02:29 50° NE 16:02:29 50° NE 16:07:24 10° N
SeaSat 1 3.3 16:03:54 36° N 16:03:54 36° N 16:07:23 10° NNW
COSMO-SKYMED 1 2.5 16:04:32 85° W 16:04:32 85° W 16:08:51 10° SSW
Lacrosse 4 Rocket 1.8 16:01:30 10° NW 16:04:53 57° NW 16:04:53 57° NW
SL-16 R/B 2.7 16:02:59 10° SW 16:08:36 57° NW 16:10:50 35° NNE
Cosmos 1943 Rocket 3.8 16:03:40 10° NW 16:08:39 33° WSW 16:13:35 10° S
Meteor 1-13 Rocket 4.2 16:03:39 10° S 16:08:34 61° SE 16:08:34 61° SE
Cosmos 1814 Rocket 3.8 16:04:06 10° NNW 16:09:11 74° NE 16:09:11 74° NE
IRIDIUM 106 4.2 16:05:46 10° S 16:11:00 88° E 16:12:47 43° N
Okean 3 3.7 16:06:58 10° SSW 16:10:41 63° WSW 16:10:41 63° WSW
YAOGAN 1 3.2 16:07:06 10° S 16:11:21 54° W 16:15:38 10° NNW
Cosmos 2208 Rocket 4.0 16:08:58 10° NNW 16:14:27 85° WSW 16:15:41 56° SSE
Cosmos 2237 Rocket 3.6 16:10:13 10° W 16:15:17 32° NW 16:17:40 23° N
Cosmos 1603 3.6 16:10:17 10° SSW 16:15:56 71° SE 16:15:56 71° SE
ATLAS 2AS CENTAUR R/B 3.4 16:08:51 10° WNW 16:16:36 49° N 16:18:22 42° NE
Cosmos 1655 Rocket 4.1 16:11:04 10° SSW 16:17:21 76° WNW 16:23:38 10° N
Cosmos 2219 Rocket 4.0 16:15:19 10° WNW 16:19:37 22° NNW 16:21:25 19° N
IRS-1A Rocket 4.2 16:19:20 56° SSE 16:20:40 82° ENE 16:26:38 10° NNW
Cosmos 2322 Rocket 4.0 16:16:55 10° NW 16:20:40 18° N 16:20:45 18° N
H-2A R/B 4.0 16:26:49 16° N 16:26:49 16° N 16:27:53 10° N
Cosmos 1697 Rocket 4.1 16:18:21 10° NNW 16:21:34 24° N 16:21:34 24° N
Ariane Rocket 3.2 16:26:26 62° NNW 16:26:26 62° NNW 16:30:39 10° NNW
Cosmos 1570 Rocket 4.3 16:20:58 10° NNW 16:26:09 63° WSW 16:27:35 45° S
USA 215 3.1 16:25:38 66° E 16:26:34 78° SSE 16:33:08 10° WSW
Cosmos 1763 Rocket 4.1 16:22:00 10° NW 16:26:57 52° WSW 16:29:23 28° S
Meteor 2-15 4.4 16:22:46 10° N 16:28:12 66° NNE 16:28:12 66° NNE
Cosmos 2333 Rocket 4.0 16:25:48 10° WNW 16:30:10 21° NNW 16:31:35 20° N
SL-16 R/B 4.1 16:29:49 10° NW 16:33:06 18° N 16:33:06 18° N
Lacrosse 5 rocket 3.0 16:31:59 10° WNW 16:34:16 31° WNW 16:34:16 31° WNW
COSMOS 2455 4.0 16:32:33 10° NW 16:37:07 31° N 16:37:07 31° N
SL-4 R/B 4.4 16:35:42 10° WSW 16:38:03 18° SW 16:38:03 18° SW
Cosmos 2266 Rocket 4.1 16:36:38 10° SSW 16:43:02 73° WNW 16:46:26 29° N
Meteor 2-4 Rocket 4.1 16:37:44 10° SSW 16:43:30 61° WNW 16:44:56 47° NNW
Cosmos 841 Rocket 4.4 16:54:29 10° NW 16:58:38 44° WNW 16:58:38 44° WNW
CZ-4C R/B 3.5 17:07:46 10° SW 17:10:26 32° SW 17:10:26 32° SW
Cosmos 2360 Rocket 4.5 17:30:51 10° NNW 17:32:34 15° NNW 17:32:34 15° NNW
Lacrosse 5 4.4 17:35:26 10° WSW 17:36:27 16° WSW 17:36:27 16° WSW
Cosmos 1980 Rocket 4.4 17:37:19 10° NNW 17:38:46 18° NNW 17:38:46 18° NNW
SL-16 R/B 4.3 17:49:27 10° WNW 17:52:44 22° NW 17:52:44 22° NW
ATLAS 2AS CENTAUR R/B 3.9 18:00:45 10° NW 18:05:48 42° NW 18:05:48 42° NW
